Date,TemperatureHighF,TemperatureAvgF,TemperatureLowF,DewpointHighF,DewpointAvgF,DewpointLowF,HumidityHigh,HumidityAvg,HumidityLow,PressureMaxIn,PressureMinIn,WindSpeedMaxMPH,WindSpeedAvgMPH,GustSpeedMaxMPH,PrecipitationSumIn
2013-7-1,81.2,68.5,59.7,69.8,63.1,58.9,98,84,62,30.05,29.92,5,0,9,0.00
2013-7-2,77.5,65.5,56.8,67.0,60.1,56.0,98,84,64,30.11,30.05,5,0,8,0.00
2013-7-3,73.1,62.1,53.9,61.7,54.8,50.8,92,78,57,30.16,30.07,6,0,12,0.00
2013-7-4,67.9,58.6,51.4,57.4,52.8,49.4,94,82,66,30.15,30.08,5,0,12,0.00
2013-7-5,67.7,58.2,51.6,58.9,53.3,49.1,92,84,69,30.08,29.98,4,0,6,0.00
2013-7-6,73.4,59.3,52.5,60.8,54.4,50.5,95,85,52,30.00,29.88,3,0,10,0.00
2013-7-7,69.7,59.0,52.5,61.1,55.3,51.7,98,88,71,30.00,29.93,6,0,8,0.00
2013-7-8,74.0,59.7,52.9,62.5,55.2,51.2,95,86,65,30.12,30.00,5,0,9,0.00
2013-7-9,80.6,67.0,55.8,68.8,60.4,53.7,97,81,61,30.11,30.00,3,0,7,0.00
2013-7-10,68.8,58.8,50.6,58.1,52.9,47.5,97,82,63,30.10,29.99,6,0,12,0.00
2013-7-11,68.5,56.9,48.0,54.9,49.4,45.6,93,77,56,30.10,30.00,7,0,12,0.00
2013-7-12,65.0,55.5,48.8,55.8,50.3,46.0,94,83,68,30.14,30.03,4,0,9,0.00
2013-7-13,73.2,61.2,47.7,55.9,48.7,42.7,91,67,38,30.20,30.09,4,0,10,0.00
2013-7-14,80.2,65.0,53.5,57.9,51.0,43.8,83,63,29,30.12,30.00,4,0,10,0.00
2013-7-15,77.9,64.8,51.1,57.3,50.4,43.0,91,63,33,30.03,29.85,5,1,14,0.00
2013-7-16,81.1,69.3,58.3,62.8,53.9,46.9,91,59,46,29.95,29.79,8,1,12,0.00
2013-7-17,67.5,60.0,55.8,59.7,56.5,53.7,99,89,70,30.21,29.95,6,0,10,0.00
2013-7-18,72.7,61.2,53.8,61.6,56.0,52.1,97,84,65,30.24,30.12,5,0,9,0.00
2013-7-19,73.2,60.4,52.4,63.5,56.0,51.2,98,86,68,30.17,30.05,5,0,7,0.00
2013-7-20,71.4,58.5,52.8,62.7,55.3,51.9,99,90,70,30.11,29.99,6,0,10,0.00
2013-7-21,70.2,59.3,52.4,62.1,56.0,51.9,99,89,73,30.01,29.94,6,0,9,0.00
2013-7-22,71.3,60.8,53.2,63.1,57.1,52.7,100,88,72,30.08,29.98,7,0,10,0.00
2013-7-23,82.1,63.7,54.5,66.8,58.6,53.9,100,86,47,30.07,29.97,5,0,9,0.00
2013-7-24,77.8,63.0,51.7,65.6,57.5,51.0,100,84,61,30.07,30.00,6,0,7,0.00
2013-7-25,78.7,63.3,50.9,65.1,56.3,49.4,97,80,59,30.12,30.04,5,0,10,0.00
2013-7-26,77.6,63.1,52.5,63.8,54.9,49.7,92,76,54,30.17,30.09,6,0,12,0.00
2013-7-27,69.8,58.4,50.1,58.2,53.0,49.0,97,83,63,30.19,30.05,8,1,12,0.00
2013-7-28,64.1,55.7,49.8,57.9,52.8,48.7,99,90,76,30.07,30.01,4,0,12,0.00
2013-7-29,70.5,59.7,54.7,60.5,54.5,51.1,95,83,68,30.04,29.96,5,0,8,0.00
2013-7-30,69.6,59.4,53.7,61.4,56.0,52.6,97,89,72,30.17,30.04,6,0,10,0.00
2013-7-31,66.8,58.9,54.5,61.2,56.7,53.5,99,93,79,30.15,30.03,7,0,12,0.00